CW0133 Weather Reports


Display with metric or nautical units.
time (UTC)temp
F
wind
direction
speed
MPH
gust
MPH
rain 1hr
in
rain 24hr
in
rain mn
in
humidity
%
barometer
mb
20260504184003 82 169 10.0 18.0 0.00 0.00 0.00 59 1014.1
20260504183524 82 174 10.0 19.0 0.00 0.00 0.00 59 1014.2
20260504183004 82 175 10.0 20.0 0.00 0.00 0.00 60 1014.3
20260504182525 81 166 11.0 22.0 0.00 0.00 0.00 60 1014.3
20260504182004 80 167 11.0 22.0 0.00 0.00 0.00 63 1014.3
20260504181504 80 166 11.0 25.0 0.00 0.00 0.00 61 1014.4
20260504181003 80 171 11.0 25.0 0.00 0.00 0.00 61 1014.3
20260504180504 81 175 11.0 24.0 0.00 0.00 0.00 60 1014.3
20260504180003 81 174 11.0 24.0 0.00 0.00 0.00 61 1014.5
20260504175524 81 176 10.0 22.0 0.00 0.00 0.00 62 1014.6
20260504175004 80 176 10.0 20.0 0.00 0.00 0.00 63 1014.7
20260504174504 79 172 10.0 20.0 0.00 0.00 0.00 64 1014.8
20260504174003 79 174 10.0 22.0 0.00 0.00 0.00 66 1015.1
20260504173503 77 180 6.0 22.0 0.00 0.00 0.00 69 1015.2
20260504173003 76 185 7.0 17.0 0.00 0.00 0.00 70 1015.3
20260504172503 76 189 10.0 17.0 0.00 0.00 0.00 70 1015.3
20260504172003 76 187 10.0 19.0 0.00 0.00 0.00 69 1015.4
20260504171503 75 184 10.0 20.0 0.00 0.00 0.00 69 1015.4
20260504171003 74 182 10.0 20.0 0.00 0.00 0.00 71 1015.4
20260504170525 74 187 8.0 19.0 0.00 0.00 0.00 71 1015.4
20260504151003 71 154 8.0 17.0 0.00 0.00 0.00 76 1016.4
20260504150503 70 150 7.0 17.0 0.00 0.00 0.00 76 1016.4
20260504141003 67 165 8.0 22.0 0.00 0.00 0.00 78 1016.6
20260504140524 67 163 8.0 22.0 0.00 0.00 0.00 78 1016.5
20260504130504 62 171 6.0 12.0 0.00 0.00 0.00 86 1016.5
20260504110504 58 159 0.0 4.0 0.00 0.00 0.00 82 1016.2
20260504100504 61 159 1.0 2.0 0.00 0.00 0.00 81 1016.3
20260504081503 63 153 2.0 6.0 0.00 0.00 0.00 77 1017.0
20260504081003 63 153 4.0 6.0 0.00 0.00 0.00 77 1017.0
20260504080524 63 153 4.0 7.0 0.00 0.00 0.00 77 1017.0
20260504050503 66 160 6.0 12.0 0.00 0.00 0.00 67 1019.3
20260504050004 66 161 5.0 12.0 0.00 0.00 0.00 67 1019.3
20260504045503 66 159 6.0 16.0 0.00 0.00 0.00 67 1019.2
20260504045004 66 159 6.0 16.0 0.00 0.00 0.00 67 1019.2
20260504044503 66 164 6.0 13.0 0.00 0.00 0.00 66 1019.2
20260504044003 66 164 6.0 13.0 0.00 0.00 0.00 66 1019.3
20260504043503 67 163 6.0 14.0 0.00 0.00 0.00 66 1019.3
20260504043003 66 160 6.0 14.0 0.00 0.00 0.00 66 1019.2
20260504042524 66 162 7.0 14.0 0.00 0.00 0.00 66 1019.2
20260504042003 66 163 7.0 14.0 0.00 0.00 0.00 66 1019.4
20260504041503 66 157 6.0 14.0 0.00 0.00 0.00 66 1019.5
20260504041004 66 155 6.0 12.0 0.00 0.00 0.00 66 1019.3
20260504040503 65 156 6.0 12.0 0.00 0.00 0.00 66 1019.3
20260504040004 65 158 5.0 10.0 0.00 0.00 0.00 67 1019.5
20260504035503 64 161 4.0 7.0 0.00 0.00 0.00 66 1019.3
20260504035003 64 159 5.0 11.0 0.00 0.00 0.00 67 1019.4
20260504034503 64 151 5.0 11.0 0.00 0.00 0.00 67 1019.3
20260504034003 63 148 5.0 11.0 0.00 0.00 0.00 68 1019.3
20260504033503 63 158 5.0 11.0 0.00 0.00 0.00 67 1019.3
20260504033003 62 163 5.0 8.0 0.00 0.00 0.00 67 1019.3
20260504032503 62 159 4.0 8.0 0.00 0.00 0.00 66 1019.1
20260504032003 63 152 2.0 8.0 0.00 0.00 0.00 65 1019.2
20260504031524 63 148 2.0 6.0 0.00 0.00 0.00 64 1019.3
20260504031003 63 148 1.0 6.0 0.00 0.00 0.00 64 1019.3
20260504030503 64 148 0.0 1.0 0.00 0.00 0.00 63 1019.1
20260504030003 64 0 0.0 0.0 0.00 0.00 0.00 62 1019.1
20260504025503 65 0 0.0 0.0 0.00 0.00 0.00 61 1019.3
20260504025024 65 0 0.0 0.0 0.00 0.00 0.00 60 1019.2
20260504024503 66 0 0.0 0.0 0.00 0.00 0.00 59 1019.1
20260504024003 66 0 0.0 0.0 0.00 0.00 0.00 59 1019.1
20260504023503 67 0 0.0 0.0 0.00 0.00 0.00 57 1019.0
20260504023024 67 0 0.0 0.0 0.00 0.00 0.00 57 1019.0
20260504022524 68 0 0.0 0.0 0.00 0.00 0.00 57 1019.0
20260504022003 68 0 0.0 0.0 0.00 0.00 0.00 56 1019.0
20260504021503 69 0 0.0 0.0 0.00 0.00 0.00 54 1019.2
20260504021003 69 0 0.0 0.0 0.00 0.00 0.00 53 1019.1
20260504020503 70 0 0.0 0.0 0.00 0.00 0.00 53 1019.0
20260504020003 70 148 0.0 2.0 0.00 0.00 0.00 52 1019.0
20260504015503 70 148 1.0 2.0 0.00 0.00 0.00 52 1018.9
20260504015003 71 148 1.0 2.0 0.00 0.00 0.00 50 1018.8
20260504014503 71 148 1.0 5.0 0.00 0.00 0.00 48 1018.6
20260504014004 72 148 2.0 5.0 0.00 0.00 0.00 47 1018.5
20260504013504 72 148 2.0 5.0 0.00 0.00 0.00 47 1018.5
20260504013004 72 148 2.0 4.0 0.00 0.00 0.00 46 1018.4
20260504012504 73 148 2.0 4.0 0.00 0.00 0.00 46 1018.4
20260504012004 73 148 4.0 5.0 0.00 0.00 0.00 46 1018.4
20260504011504 73 148 4.0 5.0 0.00 0.00 0.00 46 1018.4
20260504011004 74 148 4.0 7.0 0.00 0.00 0.00 46 1018.3
20260504010504 74 148 4.0 7.0 0.00 0.00 0.00 45 1018.5
20260504010004 74 148 4.0 6.0 0.00 0.00 0.00 45 1018.5
20260504005525 74 148 2.0 6.0 0.00 0.00 0.00 45 1018.5
20260504005004 75 148 4.0 7.0 0.00 0.00 0.00 44 1018.5
20260504004525 75 148 4.0 7.0 0.00 0.00 0.00 44 1018.4
20260504004025 75 147 4.0 7.0 0.00 0.00 0.00 43 1018.5
20260504003504 76 142 4.0 8.0 0.00 0.00 0.00 44 1018.5
20260504003004 76 142 5.0 12.0 0.00 0.00 0.00 43 1018.5
20260504002504 76 152 5.0 12.0 0.00 0.00 0.00 44 1018.5
20260504002025 76 161 5.0 10.0 0.00 0.00 0.00 43 1018.6
20260504001504 76 162 5.0 12.0 0.00 0.00 0.00 42 1018.7
20260504001004 77 158 5.0 12.0 0.00 0.00 0.00 41 1018.8
20260504000525 77 146 5.0 11.0 0.00 0.00 0.00 40 1018.8
20260504000004 77 148 6.0 11.0 0.00 0.00 0.00 40 1018.9
20260503235525 78 146 6.0 14.0 0.00 0.00 0.00 40 1018.9
20260503235025 78 139 6.0 14.0 0.00 0.00 0.00 39 1019.2
20260503234504 78 140 5.0 11.0 0.00 0.00 0.00 39 1019.1
20260503234004 78 159 6.0 12.0 0.00 0.00 0.00 38 1019.0
20260503233504 78 163 7.0 12.0 0.00 0.00 0.00 37 1019.0
20260503233004 79 144 6.0 11.0 0.00 0.00 0.00 38 1019.0
20260503232504 78 140 6.0 11.0 0.00 0.00 0.00 39 1019.1
20260503232004 78 158 6.0 17.0 0.00 0.00 0.00 38 1019.1
20260503231504 79 166 7.0 17.0 0.00 0.00 0.00 37 1019.1
20260503231004 79 161 8.0 16.0 0.00 0.00 0.00 37 1019.0
20260503230504 79 161 7.0 16.0 0.00 0.00 0.00 35 1019.0
20260503230004 80 145 6.0 12.0 0.00 0.00 0.00 36 1019.0
20260503225503 80 137 7.0 13.0 0.00 0.00 0.00 36 1019.0
20260503225004 80 136 7.0 13.0 0.00 0.00 0.00 36 1019.0
20260503224504 80 131 7.0 18.0 0.00 0.00 0.00 37 1019.2
20260503224004 81 139 6.0 18.0 0.00 0.00 0.00 34 1019.2
20260503223504 82 135 7.0 16.0 0.00 0.00 0.00 33 1019.3
20260503223003 82 132 7.0 16.0 0.00 0.00 0.00 34 1019.4
20260503222504 83 140 7.0 17.0 0.00 0.00 0.00 33 1019.5
20260503222003 83 137 7.0 17.0 0.00 0.00 0.00 33 1019.6
20260503221504 83 139 6.0 14.0 0.00 0.00 0.00 33 1019.6
20260503221004 83 140 8.0 17.0 0.00 0.00 0.00 33 1019.7
20260503220504 83 138 8.0 17.0 0.00 0.00 0.00 34 1019.8
20260503220003 83 142 7.0 17.0 0.00 0.00 0.00 33 1020.0
20260503215525 83 139 7.0 17.0 0.00 0.00 0.00 32 1019.9
20260503215004 83 143 7.0 14.0 0.00 0.00 0.00 31 1020.0
20260503214525 83 142 7.0 14.0 0.00 0.00 0.00 30 1020.0
20260503214003 83 154 7.0 14.0 0.00 0.00 0.00 32 1020.1
20260503213503 83 166 7.0 13.0 0.00 0.00 0.00 33 1020.2
20260503213004 83 155 7.0 16.0 0.00 0.00 0.00 32 1020.3
20260503212525 83 158 8.0 18.0 0.00 0.00 0.00 35 1020.4
20260503212004 83 153 8.0 18.0 0.00 0.00 0.00 35 1020.6
20260503211525 83 149 7.0 16.0 0.00 0.00 0.00 33 1020.6
20260503211003 83 163 6.0 12.0 0.00 0.00 0.00 32 1020.7
20260503210503 83 170 7.0 14.0 0.00 0.00 0.00 33 1020.7
20260503210005 83 164 8.0 16.0 0.00 0.00 0.00 31 1020.8
20260503205504 82 167 10.0 22.0 0.00 0.00 0.00 33 1021.0
20260503205003 83 174 11.0 22.0 0.00 0.00 0.00 32 1021.1
20260503204525 83 178 8.0 22.0 0.00 0.00 0.00 32 1021.0
20260503204003 83 175 7.0 16.0 0.00 0.00 0.00 31 1021.1
20260503203503 84 164 7.0 16.0 0.00 0.00 0.00 32 1021.4
20260503203004 83 154 8.0 20.0 0.00 0.00 0.00 31 1021.4
20260503202504 84 155 8.0 20.0 0.00 0.00 0.00 32 1021.7
20260503202003 84 152 7.0 14.0 0.00 0.00 0.00 37 1021.7
20260503201504 84 143 6.0 14.0 0.00 0.00 0.00 33 1021.6
20260503201004 83 146 7.0 14.0 0.00 0.00 0.00 33 1021.6
20260503200504 83 147 7.0 14.0 0.00 0.00 0.00 35 1021.7
20260503200025 83 170 8.0 19.0 0.00 0.00 0.00 32 1021.9
20260503195503 83 166 10.0 19.0 0.00 0.00 0.00 32 1022.1
20260503195003 83 150 7.0 20.0 0.00 0.00 0.00 33 1022.1
20260503194525 83 141 8.0 20.0 0.00 0.00 0.00 35 1022.1
20260503194004 82 135 8.0 16.0 0.00 0.00 0.00 34 1022.2
20260503193503 83 157 8.0 18.0 0.00 0.00 0.00 32 1022.3
20260503193004 82 164 10.0 19.0 0.00 0.00 0.00 31 1022.4
20260503192504 83 141 8.0 19.0 0.00 0.00 0.00 34 1022.4
20260503192003 83 140 8.0 18.0 0.00 0.00 0.00 35 1022.5
20260503191503 82 166 8.0 18.0 0.00 0.00 0.00 36 1022.4
20260503191004 82 174 10.0 19.0 0.00 0.00 0.00 35 1022.5
20260503190503 82 168 10.0 19.0 0.00 0.00 0.00 37 1022.6
20260503190004 82 172 7.0 17.0 0.00 0.00 0.00 35 1022.6
20260503185504 82 171 8.0 18.0 0.00 0.00 0.00 36 1022.7
20260503185003 82 156 8.0 19.0 0.00 0.00 0.00 35 1022.9
20260503184503 82 152 7.0 19.0 0.00 0.00 0.00 35 1023.1